TimePDT,TemperatureF,Dew PointF,Humidity,Sea Level PressureIn,VisibilityMPH,Wind Direction,Wind SpeedMPH,Gust SpeedMPH,PrecipitationIn,Events,Conditions,WindDirDegrees,DateUTC
12:53 AM,39.9,30.9,70,30.14,10.0,Calm,Calm,-,N/A,,Clear,0,2013-04-12 07:53:00
1:53 AM,39.0,30.0,70,30.13,10.0,Calm,Calm,-,N/A,,Unknown,0,2013-04-12 08:53:00
2:53 AM,36.0,30.0,79,30.11,10.0,East,3.5,-,N/A,,Clear,100,2013-04-12 09:53:00
3:53 AM,33.1,28.9,85,30.11,10.0,Calm,Calm,-,N/A,,Clear,0,2013-04-12 10:53:00
4:53 AM,32.0,28.9,88,30.11,10.0,North,3.5,-,N/A,,Clear,360,2013-04-12 11:53:00
5:53 AM,30.9,28.9,92,30.11,10.0,North,3.5,-,N/A,,Clear,10,2013-04-12 12:53:00
6:53 AM,36.0,32.0,86,30.10,10.0,Calm,Calm,-,N/A,,Clear,0,2013-04-12 13:53:00
7:53 AM,42.1,36.0,79,30.09,10.0,Calm,Calm,-,N/A,,Clear,0,2013-04-12 14:53:00
8:53 AM,46.9,37.0,68,30.07,10.0,SSE,4.6,-,N/A,,Clear,160,2013-04-12 15:53:00
9:53 AM,51.1,35.1,54,30.03,10.0,South,4.6,-,N/A,,Clear,190,2013-04-12 16:53:00
10:53 AM,54.0,33.1,45,29.99,10.0,SSW,10.4,-,N/A,,Clear,200,2013-04-12 17:53:00
11:53 AM,57.0,32.0,39,29.96,10.0,SSW,9.2,-,N/A,,Clear,210,2013-04-12 18:53:00
12:53 PM,59.0,30.9,35,29.91,10.0,South,6.9,-,N/A,,Clear,170,2013-04-12 19:53:00
1:53 PM,60.1,28.9,31,29.87,10.0,WSW,3.5,-,N/A,,Partly Cloudy,240,2013-04-12 20:53:00
2:53 PM,61.0,33.1,35,29.83,10.0,SW,6.9,-,N/A,,Scattered Clouds,230,2013-04-12 21:53:00
3:53 PM,61.0,32.0,34,29.81,10.0,SW,9.2,-,N/A,,Overcast,230,2013-04-12 22:53:00
4:53 PM,60.1,32.0,35,29.79,10.0,SW,16.1,-,N/A,,Overcast,220,2013-04-12 23:53:00
5:53 PM,55.9,36.0,47,29.78,10.0,WSW,15.0,-,0.00,Rain,Light Rain,250,2013-04-13 00:53:00
6:53 PM,52.0,39.9,63,29.75,10.0,SW,6.9,-,0.00,Rain,Light Rain,230,2013-04-13 01:53:00
7:53 PM,50.0,43.0,77,29.72,10.0,South,5.8,-,0.01,Rain,Light Rain,190,2013-04-13 02:53:00
8:53 PM,50.0,41.0,71,29.70,10.0,SSW,11.5,-,0.00,Rain,Light Rain,200,2013-04-13 03:53:00
9:53 PM,51.1,39.0,63,29.70,10.0,WSW,12.7,-,0.00,,Overcast,250,2013-04-13 04:53:00
10:53 PM,50.0,39.0,66,29.69,10.0,West,10.4,-,N/A,,Overcast,270,2013-04-13 05:53:00
11:53 PM,50.0,37.9,63,29.67,10.0,SW,25.3,36.8,N/A,,Partly Cloudy,230,2013-04-13 06:53:00